カタログに戻る

STARLINK-5286

運用中通信VLEO
NORAD 55294·PAYLOAD·🇺🇸 United States

打ち上げ Jan 19, 2023 から Vandenberg Space Force Base

Loading…

次のパス (今後24時間)

TLE

最新Source: CelesTrak SupGP

元期: Sep 15, 2026, 02:40 UTC

1 55294C 23010AB  26258.11159722 -.00007392  00000+0 -61936-3 0  2580
2 55294  69.9995 286.7318 0003801 266.9093  50.4413 14.98341229    17

AllMySatでSTARLINK-5286をリアルタイム追跡

Download on the App Store